Wind_Speed
12 11 10 10 10 10 10 10 12 13 15 14 14 13 13 14 12 9 6 5 8 10 13 15 15 14 14 14 14 13 12 11 11 10 8 7 5 4 4 4 3 3 4 5
12 11 11 11 11 11 10 10 12 13 13 14 13 12 12 12 10 8 4 3 4 8 10 11 12 12 13 12 13 13 11 10 11 10 8 5 4 3 3 2 2 3 3 4
12 12 12 11 11 12 11 11 12 13 13 13 13 12 11 11 8 6 3 2 3 7 8 10 11 11 12 11 11 11 11 10 10 8 6 4 3 3 1 1 1 2 3 4
13 13 12 12 12 12 12 12 12 12 12 13 12 12 10 9 7 4 3 2 3 6 8 9 10 10 11 11 11 11 11 11 9 7 6 5 4 3 2 0 1 2 3 4
14 14 13 13 13 12 12 12 12 11 11 11 11 10 9 7 6 4 3 2 4 6 7 8 9 10 10 10 10 10 11 10 9 8 6 5 5 4 2 1 1 2 3 4
17 16 14 13 13 12 11 11 11 10 10 10 10 9 8 6 5 3 2 3 4 5 6 7 8 8 8 9 9 10 11 9 9 8 7 6 5 4 2 1 2 3 4 5
16 16 15 13 12 11 11 10 10 9 9 9 9 8 6 5 4 2 1 4 5 5 6 6 6 8 8 8 9 10 11 10 9 8 7 6 5 3 1 1 2 4 5 6
16 15 15 14 12 11 11 10 9 8 8 9 9 7 5 4 3 1 1 4 6 6 7 7 7 8 8 8 9 10 10 9 9 8 8 6 4 3 2 2 4 5 6 7
18 17 17 15 14 13 12 12 11 10 10 8 8 8 6 4 2 0 1 3 5 6 7 7 7 7 7 8 9 10 10 9 9 8 7 6 4 3 4 4 5 7 8 9
20 19 19 17 15 14 13 13 12 10 9 8 8 7 7 5 3 2 2 2 4 5 6 6 7 7 7 7 8 9 9 9 9 8 7 6 5 5 6 6 8 9 10 11
22 21 20 19 16 15 15 14 13 12 11 8 7 8 9 7 5 4 4 4 4 5 5 6 6 7 7 8 8 8 9 9 9 8 8 7 7 8 8 9 10 11 12 13
24 23 21 21 19 17 16 15 15 14 12 10 8 10 10 8 7 6 6 5 6 6 6 6 6 7 8 8 9 9 8 9 9 9 9 9 9 10 10 11 12 13 14 15
25 24 23 22 20 18 18 16 16 15 14 11 9 10 11 9 9 8 7 7 7 7 7 7 7 8 8 8 9 9 9 9 9 10 10 11 11 12 13 14 14 14 15 16
26 25 22 20 18 18 18 16 16 15 13 12 11 12 12 11 10 9 8 8 8 8 8 8 8 9 9 9 9 9 9 10 10 11 12 13 14 14 15 15 16 16 16 18
25 25 22 20 20 18 17 17 17 15 14 13 13 13 13 12 11 10 9 9 9 9 9 9 9 10 10 10 10 10 11 12 12 13 13 14 15 16 16 17 17 17 18 19
25 24 22 20 20 19 18 17 17 16 15 15 14 14 14 14 12 11 10 10 9 9 9 9 10 11 11 12 12 13 13 14 14 15 15 16 17 17 17 17 18 19 20 21
25 23 21 20 20 19 18 16 17 16 15 15 14 15 17 16 14 12 11 10 10 10 10 11 11 12 13 13 14 15 15 16 16 17 17 18 18 18 18 19 19 20 21 22
23 21 20 20 20 20 17 16 16 16 16 17 16 17 18 17 15 14 13 12 11 11 12 12 13 14 14 15 16 17 17 18 18 19 19 19 19 19 20 20 21 22 23 24
23 22 21 20 18 18 18 16 16 16 16 17 17 19 19 18 17 16 15 14 14 14 14 14 15 15 16 17 18 18 19 19 20 20 20 20 20 21 21 22 22 23 24 25
22 22 21 20 18 17 18 17 16 16 17 18 18 19 20 20 19 19 18 17 16 16 16 16 17 17 17 18 20 20 21 21 21 22 22 22 23 23 23 23 24 25 26 26
22 21 20 19 18 18 19 17 16 17 18 18 19 19 20 21 22 22 21 20 19 18 18 19 18 18 19 20 21 22 22 22 22 23 23 24 24 24 24 25 25 26 27 28
20 21 21 19 18 20 19 18 18 18 18 18 20 21 21 22 23 22 22 22 22 22 21 21 20 20 20 21 22 23 23 23 24 24 25 25 25 25 26 26 27 28 29 30
20 21 21 20 20 19 19 20 19 19 19 19 20 21 22 23 24 24 24 24 25 25 24 23 23 23 23 23 24 24 25 25 25 25 25 26 26 27 27 28 29 30 31 32
20 20 20 20 20 20 20 20 20 20 20 20 21 21 22 23 24 24 25 26 26 26 25 26 26 26 26 26 26 26 26 26 26 27 27 27 27 28 29 30 31 32 33 33
22 21 20 21 22 22 22 22 21 21 21 21 22 22 22 22 24 25 26 27 26 26 26 27 28 28 28 28 28 27 27 28 27 28 28 28 29 29 31 32 32 33 34 35
22 22 21 22 22 23 23 22 22 22 22 22 23 23 22 23 23 24 25 26 27 27 28 29 29 30 30 30 30 29 29 28 29 29 29 29 30 31 32 33 34 35 37 38
Wind_Direction
275 278 285 285 288 290 297 306 309 308 311 312 314 315 315 315 317 312 296 251 235 220 216 218 218 216 207 203 206 209 211 215 217 221 227 230 239 260 274 279 289 299 306 313
263 269 273 279 285 292 298 305 309 309 311 313 317 316 316 317 317 319 305 239 210 199 200 203 206 203 196 196 198 205 208 210 212 216 218 219 222 239 262 277 305 308 314 323
254 254 266 276 283 288 295 300 307 312 316 319 320 321 320 320 319 316 301 226 201 191 186 189 192 189 190 192 199 206 202 202 200 194 192 196 202 213 223 279 318 325 331 332
245 250 260 272 279 284 289 293 302 310 320 324 324 327 327 321 322 308 278 220 182 172 169 170 177 182 186 192 198 197 196 192 184 178 179 176 178 175 166 139 1 357 349 343
240 244 254 266 272 277 284 292 301 308 318 325 325 327 327 326 326 311 268 215 173 163 161 164 171 176 180 186 187 185 184 183 178 174 173 171 167 162 157 117 28 7 357 351
234 241 248 258 266 273 281 290 301 308 315 325 324 326 328 332 333 322 262 207 180 165 159 160 168 176 176 181 183 183 177 179 177 176 176 172 165 160 152 80 18 2 355 348
236 239 245 252 261 269 276 291 311 316 319 313 317 322 326 334 344 347 217 189 176 171 167 164 168 168 171 178 181 181 180 183 181 180 179 175 169 171 178 351 348 344 342 339
231 238 242 244 254 266 275 282 282 283 292 301 310 311 317 334 346 8 168 176 173 175 174 176 175 168 174 181 185 185 185 187 186 187 187 186 187 205 245 299 318 323 326 327
223 230 238 242 248 258 270 273 274 281 290 301 303 298 290 300 307 323 169 172 177 180 180 184 183 181 181 187 187 188 188 189 191 195 197 200 210 236 262 285 300 309 316 318
222 230 238 241 247 254 265 271 273 275 280 291 299 295 282 274 271 251 231 199 185 187 186 188 192 194 198 200 196 193 192 196 201 206 211 216 233 254 269 283 292 300 308 314
225 232 242 244 252 261 261 266 267 269 267 268 279 276 268 266 263 254 242 231 217 209 205 205 203 202 205 203 201 202 204 208 212 218 224 233 248 261 273 284 292 299 305 310
230 233 242 251 254 254 256 260 264 267 268 264 261 269 264 259 256 252 248 242 234 227 222 221 216 212 211 212 212 211 214 219 225 232 240 249 258 267 275 285 294 299 305 310
232 236 242 251 255 255 256 257 260 262 261 259 254 262 261 255 252 250 247 245 242 234 230 227 222 220 219 218 220 221 228 232 239 247 255 262 268 273 278 286 294 300 305 309
232 236 239 242 246 255 257 255 257 258 257 257 249 247 254 252 248 249 249 247 244 236 232 227 224 226 227 227 229 234 241 246 251 256 262 268 273 278 281 287 293 299 305 307
233 237 237 239 244 252 253 253 255 254 250 247 243 244 246 248 247 246 247 247 242 238 235 233 235 235 236 236 239 245 250 254 258 262 267 272 277 280 285 289 293 298 303 306
233 236 238 241 244 248 250 251 252 251 249 243 237 238 241 243 245 244 245 244 242 239 237 238 243 245 245 246 247 250 254 259 263 267 272 275 278 282 287 293 296 299 302 305
229 233 234 235 241 245 249 250 250 249 244 238 234 233 237 241 244 244 246 246 245 246 244 245 248 249 250 252 253 255 258 262 266 269 273 277 279 284 288 292 295 298 302 305
226 229 231 232 238 244 248 247 245 244 241 237 234 232 234 238 240 243 248 251 254 256 254 251 250 251 253 256 257 259 262 264 267 271 274 278 281 285 288 291 294 297 301 304
226 228 230 231 238 246 249 244 241 242 239 237 234 232 233 235 238 242 246 252 257 260 260 258 257 257 258 259 260 262 264 265 267 270 274 278 282 285 288 292 294 297 300 302
225 229 231 231 235 243 246 242 240 239 238 235 233 233 233 234 238 243 246 250 256 260 262 262 262 262 263 262 262 264 266 267 269 271 273 277 281 285 288 291 294 297 300 302
223 225 229 230 233 239 242 239 237 237 237 235 234 235 235 236 239 245 248 250 254 259 261 262 263 264 265 265 265 265 267 269 271 273 275 278 281 284 288 291 294 297 300 302
222 224 225 227 231 236 240 239 237 237 237 236 235 237 239 239 240 245 248 251 255 258 260 260 262 264 266 267 267 267 269 269 272 275 275 277 280 284 287 291 294 297 299 302
225 223 222 226 231 235 238 239 240 239 239 239 239 240 241 240 242 245 248 250 253 256 258 259 261 262 265 266 267 269 270 272 273 275 277 279 281 285 287 290 293 297 299 301
225 225 228 231 235 238 241 242 241 241 242 243 242 242 244 243 244 247 249 252 252 253 256 258 260 262 264 265 266 269 271 272 273 275 278 280 281 285 289 292 294 297 298 300
227 229 234 236 238 241 244 244 243 245 246 245 245 245 246 248 249 250 252 253 254 254 255 258 260 261 264 265 265 267 270 270 272 275 278 280 283 285 288 290 294 296 298 300
231 233 235 238 241 243 245 246 246 246 248 248 248 247 246 249 253 253 252 253 254 254 255 258 261 262 263 264 264 267 269 270 272 275 277 280 283 286 288 291 294 296 298 300
Height
5872 5873 5873 5873 5872 5872 5871 5870 5868 5867 5863 5861 5859 5857 5854 5851 5848 5846 5845 5844 5844 5844 5846 5847 5849 5852 5854 5856 5858 5861 5863 5866 5867 5869 5870 5871 5872 5872 5873 5873 5872 5872 5871 5870
5869 5870 5870 5869 5869 5869 5868 5867 5866 5864 5861 5859 5857 5855 5852 5849 5847 5845 5844 5843 5843 5843 5844 5845 5847 5849 5852 5854 5857 5859 5862 5864 5866 5867 5868 5869 5870 5871 5871 5871 5871 5870 5870 5869
5866 5868 5866 5867 5867 5866 5866 5865 5864 5862 5859 5857 5855 5853 5851 5848 5846 5844 5843 5842 5842 5842 5843 5845 5847 5849 5851 5853 5855 5858 5860 5862 5864 5866 5867 5868 5869 5870 5870 5870 5870 5869 5868 5867
5862 5863 5863 5864 5864 5863 5864 5862 5861 5860 5857 5856 5854 5852 5850 5847 5845 5844 5843 5842 5842 5843 5844 5845 5847 5849 5851 5853 5855 5857 5859 5861 5863 5865 5866 5867 5868 5869 5869 5869 5868 5868 5867 5866
5859 5860 5860 5861 5861 5861 5860 5860 5859 5857 5856 5855 5853 5851 5850 5847 5845 5844 5842 5842 5843 5843 5845 5846 5847 5849 5851 5852 5854 5856 5858 5860 5862 5864 5865 5866 5867 5868 5868 5868 5867 5867 5866 5865
5855 5856 5857 5858 5858 5858 5858 5857 5857 5855 5855 5854 5852 5851 5849 5846 5845 5843 5843 5842 5843 5844 5845 5846 5847 5849 5850 5852 5853 5855 5857 5859 5862 5863 5865 5866 5866 5867 5867 5867 5867 5866 5865 5864
5851 5853 5854 5855 5855 5856 5855 5856 5856 5856 5855 5854 5851 5849 5849 5846 5844 5843 5843 5843 5844 5844 5845 5846 5848 5848 5850 5851 5853 5855 5857 5859 5861 5863 5864 5865 5865 5866 5866 5866 5866 5865 5864 5863
5849 5851 5851 5852 5853 5853 5853 5853 5855 5855 5854 5852 5849 5848 5848 5846 5844 5843 5843 5844 5844 5845 5846 5847 5848 5849 5850 5852 5853 5855 5857 5859 5860 5862 5863 5864 5864 5865 5865 5865 5864 5864 5863 5861
5845 5848 5848 5848 5849 5850 5850 5850 5850 5850 5850 5850 5849 5847 5846 5845 5844 5843 5843 5844 5844 5845 5846 5847 5848 5849 5851 5852 5853 5855 5856 5858 5859 5861 5862 5862 5863 5863 5863 5863 5863 5862 5861 5859
5841 5843 5843 5844 5845 5846 5847 5847 5847 5847 5848 5848 5848 5846 5845 5844 5843 5843 5843 5844 5844 5845 5846 5846 5847 5849 5850 5851 5852 5854 5855 5857 5858 5860 5860 5861 5861 5862 5862 5861 5860 5859 5858 5856
5836 5839 5840 5841 5842 5842 5843 5843 5843 5844 5844 5845 5846 5847 5843 5842 5842 5842 5842 5843 5844 5844 5845 5846 5847 5848 5849 5850 5852 5853 5854 5856 5857 5858 5859 5859 5860 5860 5859 5859 5858 5857 5855 5854
5830 5833 5835 5836 5837 5837 5838 5839 5840 5841 5841 5841 5842 5845 5840 5840 5840 5841 5841 5842 5842 5843 5844 5845 5846 5847 5848 5849 5850 5852 5853 5854 5855 5856 5857 5857 5857 5857 5857 5856 5855 5854 5852 5850
5825 5828 5830 5832 5834 5834 5833 5834 5835 5836 5836 5837 5839 5842 5837 5838 5838 5839 5839 5840 5840 5841 5842 5843 5844 5846 5847 5848 5849 5850 5851 5852 5853 5854 5855 5855 5855 5855 5854 5853 5852 5850 5848 5846
5819 5821 5825 5828 5828 5828 5829 5830 5830 5831 5833 5834 5835 5836 5835 5835 5835 5836 5837 5838 5838 5839 5840 5841 5842 5844 5845 5846 5847 5848 5849 5850 5851 5851 5852 5852 5852 5851 5850 5849 5848 5846 5844 5842
5812 5815 5818 5820 5821 5822 5824 5825 5826 5827 5828 5830 5831 5831 5831 5831 5832 5833 5834 5835 5836 5836 5837 5839 5840 5841 5843 5844 5845 5846 5847 5847 5848 5848 5849 5848 5848 5847 5846 5845 5843 5842 5839 5837
5806 5809 5812 5814 5816 5817 5818 5820 5821 5822 5823 5824 5825 5827 5827 5827 5828 5830 5831 5832 5833 5833 5834 5836 5837 5838 5839 5841 5842 5843 5844 5844 5845 5845 5845 5844 5844 5843 5842 5840 5839 5837 5834 5832
5800 5804 5807 5809 5811 5812 5814 5815 5816 5817 5818 5819 5821 5823 5822 5823 5825 5826 5827 5828 5829 5830 5831 5832 5833 5834 5836 5837 5838 5839 5840 5840 5840 5840 5840 5840 5839 5838 5837 5835 5833 5831 5829 5826
5795 5798 5801 5804 5806 5808 5811 5810 5811 5812 5813 5814 5816 5817 5818 5820 5821 5822 5823 5825 5826 5827 5828 5829 5829 5831 5832 5833 5834 5834 5835 5835 5836 5836 5835 5835 5834 5833 5831 5830 5827 5825 5823 5820
5789 5792 5795 5798 5800 5803 5805 5805 5806 5807 5809 5810 5811 5812 5814 5815 5817 5818 5819 5820 5822 5823 5824 5825 5825 5826 5827 5828 5829 5830 5830 5830 5830 5830 5830 5829 5828 5827 5826 5824 5821 5819 5817 5814
5783 5786 5790 5793 5796 5798 5800 5800 5800 5803 5804 5805 5806 5807 5809 5811 5813 5814 5815 5816 5817 5818 5819 5820 5821 5822 5823 5823 5824 5825 5825 5825 5825 5825 5824 5823 5822 5821 5819 5817 5815 5813 5811 5808
5778 5781 5784 5787 5790 5792 5793 5794 5796 5799 5800 5800 5801 5802 5804 5806 5808 5809 5810 5811 5812 5813 5814 5815 5816 5817 5817 5818 5819 5819 5819 5819 5819 5818 5818 5817 5816 5814 5813 5811 5809 5806 5804 5801
5773 5776 5778 5781 5784 5788 5787 5788 5791 5792 5793 5794 5795 5797 5798 5800 5802 5803 5804 5806 5807 5808 5809 5810 5810 5811 5812 5812 5813 5813 5813 5813 5812 5812 5811 5810 5809 5807 5806 5804 5802 5799 5796 5793
5767 5770 5772 5776 5779 5779 5780 5782 5784 5786 5787 5788 5790 5791 5793 5794 5796 5797 5798 5800 5801 5802 5803 5803 5804 5805 5805 5806 5806 5806 5807 5806 5806 5805 5804 5803 5802 5800 5798 5796 5794 5791 5788 5785
5762 5764 5766 5769 5771 5772 5774 5776 5777 5779 5781 5782 5784 5785 5787 5788 5789 5790 5792 5793 5794 5795 5796 5797 5798 5798 5799 5799 5799 5799 5799 5799 5799 5798 5797 5796 5794 5792 5790 5788 5786 5783 5780 5776
5756 5759 5761 5763 5765 5767 5768 5769 5771 5773 5775 5776 5777 5779 5780 5782 5783 5783 5784 5785 5787 5788 5789 5789 5790 5791 5791 5792 5792 5792 5792 5792 5791 5790 5789 5787 5786 5784 5782 5780 5777 5774 5771 5768
5751 5753 5755 5757 5759 5761 5762 5763 5765 5767 5768 5769 5771 5772 5773 5774 5775 5776 5777 5778 5779 5780 5781 5782 5782 5783 5783 5784 5784 5784 5784 5783 5783 5782 5781 5779 5778 5776 5773 5771 5768 5765 5762 5758